Regional Weather Roundup
Issued by NWS

Home | Current Version | Previous Version | Text Only | Print | Product List | Glossary On
Versions: 1 2 3 4 5 6 7 8 9 10 11 12 13 14 15 16 17 18 19 20 21 22 23 24 25 26 27 28 29 30 31 32 33 34 35 36 37 38 39 40 41 42 43 44 45 46 47 48 49 50
000
ASUS43 KMKX 221721
RWRWI

WISCONSIN REGIONAL WEATHER ROUNDUP
NATIONAL WEATHER SERVICE MILWAUKEE/SULLIVAN WI
1200 PM CDT MON SEP 22 2014

NOTE: "FAIR" INDICATES FEW OR NO CLOUDS BELOW 12,000 FEET WITH NO
SIGNIFICANT WEATHER AND/OR OBSTRUCTIONS TO VISIBILITY.

WIZ001-002-006>008-014>016-023>028-221800-
NORTHWEST WISCONSIN

CITY           SKY/WX    TMP DP  RH WIND       PRES   REMARKS
SUPERIOR ARPT  SUNNY     66  53  63 W9        30.18F
ASHLAND        SUNNY     65  51  60 W9        30.19F
HAYWARD        SUNNY     61  49  64 W8        30.22F
SIREN          MOSUNNY   63  50  63 W8        30.23F
RICE LAKE      MOSUNNY   61  50  66 NW5       30.26S
LADYSMITH      PTSUNNY   58  52  78 W7        30.26F
EAU CLAIRE     MOSUNNY   63  50  62 NW9       30.25F
MENOMONIE      SUNNY     64  50  60 W10G16    30.25F
NEW RICHMOND   SUNNY     65  51  59 W6        30.25F
OSCEOLA        SUNNY     64  51  64 SW9       30.28S
$$

WIZ003>005-009-010-017-018-221800-
NORTH CENTRAL WISCONSIN

CITY           SKY/WX    TMP DP  RH WIND       PRES   REMARKS
WOODRUFF       PTSUNNY   60  49  67 W9        30.20F
RHINELANDER    CLOUDY    62  48  60 W13       30.21F
EAGLE RIVER    CLOUDY    61  46  58 W10G17    30.19S
LAND O LAKES   PTSUNNY   61  47  60 W10       30.19S
PHILLIPS       PTSUNNY   59  49  69 W7G16     30.22S
TOMAHAWK       CLOUDY    59  46  61 W9        30.23S
MEDFORD        CLOUDY    59  48  68 W9        30.24F
MERRILL        CLOUDY    62  48  61 W13       30.22S
$$

WIZ029-030-035-036-043>047-221800-
CENTRAL WISCONSIN

CITY           SKY/WX    TMP DP  RH WIND       PRES   REMARKS
WAUSAU         CLOUDY    62  46  55 W14       30.22F
MOSINEE        CLOUDY   N/A  48   0 W10       30.25F
MARSHFIELD     CLOUDY    63  49  60 W9        30.24F
STEVENS POINT  MOSUNNY   60  44  54 W9        30.25F
WAUPACA        SUNNY     67  46  46 W7        30.24F
WAUTOMA        SUNNY     66  45  46 W8        30.26S
WISC RAPIDS    SUNNY     65  46  50 W10       30.26F
CAMP DOUGLAS   MOSUNNY   66  50  55 W13       30.26F
$$

WIZ011>013-019>022-031-037>040-048>050-221800-
NORTHEAST WISCONSIN

CITY           SKY/WX    TMP DP  RH WIND       PRES   REMARKS
ANTIGO         CLOUDY    61  47  61 W16       30.22S
STURGEON BAY   CLOUDY    59  46  63 W8        30.21S
GREEN BAY      SUNNY     64  47  53 VRB7      30.23S
MANITOWOC      SUNNY     62  47  57 W8        30.24S
APPLETON       MOSUNNY   61  46  59 W9        30.24F
CLINTONVILLE   MOSUNNY   64  45  48 W6        30.23S
OSHKOSH        SUNNY     62  47  57 W9        30.25S
$$

WIZ032>034-041-042-053>061-221800-
SOUTHWEST WISCONSIN

CITY           SKY/WX    TMP DP  RH WIND       PRES   REMARKS
LA CROSSE      SUNNY     67  49  52 SW7       30.26F
SPARTA         SUNNY     64  48  57 W6        30.27F
VIROQUA        FAIR      64  47  54 W7G16     30.28F
BOSCOBEL       SUNNY     65  48  54 SW8       30.29F
PRAIRIE DU CHI SUNNY     63  47  55 S6        30.29F
PLATTEVILLE    FAIR      63  44  49 SW9       30.31F
$$

WIZ056-057-062-063-064-067-068-221800-
SOUTH CENTRAL WISCONSIN

CITY           SKY/WX    TMP DP  RH WIND       PRES   REMARKS
BARABOO/DELLS  SUNNY     63  44  49 W6        30.27F
LONE ROCK      SUNNY     66  47  50 W10       30.28F
WATERTOWN      SUNNY     62  44  51 SW5       30.27S
MADISON        SUNNY     63  43  48 VRB7      30.28S
MIDDLETON      FAIR      64  44  47 W7        30.29S
MONROE         SUNNY     61  41  48 SW7       30.29F
JANESVILLE     SUNNY     63  43  48 W6        30.28F
$$

WIZ051-052-058>065-066-070>072-221800-
SOUTHEAST WISCONSIN

CITY           SKY/WX    TMP DP  RH WIND       PRES   REMARKS
MILWAUKEE      SUNNY     62  42  47 VRB6      30.27F
WAUKESHA       SUNNY     59  43  55 W7        30.29S
MILWAUKEE/TIMM SUNNY     61  41  48 W7        30.27S
RACINE         SUNNY     61  44  53 VRB5      30.29F
BURLINGTON     SUNNY     60  41  49 NW3       30.27F
KENOSHA        SUNNY     61  44  53 MISG      30.28F
FOND DU LAC    SUNNY     63  44  50 W12       30.25F
SHEBOYGAN      SUNNY     63  43  48 W10G18    30.25S
WEST BEND      SUNNY     61  41  48 W9        30.26F
JUNEAU         SUNNY     61  44  54 SW9       30.28S
$$

LSZ147-162-221800-
LAKE SUPERIOR

STATION/POSITION TIME  TEMP    WIND        PRES    WAVE
                       AIR SEA DIR/SP/G            HT/PER
                 (UTC) (F)     (DEG/KT/KT) (MB)    (FT/S)
W MID LAKE BUOY  1650   50 47  230/ 14/ 16 1020.4F   2/ 3
DEVILS ISLAND    1700   55     230/ 13/ 16 1021.4F
PORT WING        1640   60     270/  8/ 11 1022.4F
SAXON HARBOR     1600   62     270/  3/  8 1022.7S
$$

LMZ867-665-643>646-221800-
LAKE MICHIGAN

STATION/POSITION TIME  TEMP    WIND        PRES    WAVE
                       AIR SEA DIR/SP/G            HT/PER
                 (UTC) (F)     (DEG/KT/KT) (MB)    (FT/S)
N MID LAKE BUOY  1650   53 57  230/ 12/ 14 1021.9F   2/ 4
NORTHPORT PIER   1600   56     220/  2/  5 1022.4S
KEWAUNEE LAKESHO 1700   62     280/  6/ 11 1022.3F
SHEBOYGAN LAKESH 1700   60 53  280/ 13/ 15 1024.6F
PORT WASHINGTON  1600   62     310/  7/ 12 1025.1
ATWATER BUOY     1700   60     270/  6/  8 1025.7F
MILWAUKEE LAKESH 1700   60     290/  9/ 11   N/A
S MID LAKE BUOY  1650   54 62  270/  8/ 10 1025.6S   3/ 7
KENOSHA   LAKESH 1700   58      10/  2/  6 1025.1F
$$

TC  - TEMPERATURE IN CELSIUS
VSB - VISIBILITY IN STATUTE MILES
WCI - WIND CHILL INDEX
HX  - HEAT INDEX



USA.gov is the U.S. government's official web portal to all federal, state and local government web resources and services.